Location: Peebles
(55.6412°N, 3.1714°W)
Time: 17:45:55
(UTC+01:00)

USA 238 DEB - Pass Details

Date: 22 January 2022
Orbit: 969 x 1243 km, 63.4° (Epoch: 04 May)

Event Time Altitude Azimuth Distance (km) Brightness Sun altitude
Rises 18:33:44 0° 242° (WSW) 3,720 7.9 -17.3°
Reaches altitude 10° 18:36:16 10° 245° (WSW) 2,800 7.1 -17.7°
Maximum altitude 18:42:52 70° 329° (NNW) 1,129 3.9 -18.6°
Enters shadow 18:47:23 24° 49° (NE) 2,119 4.8 -19.2°
